User: anonymous   Login
Location: Unspecified
(0.0000°N, 0.0000°E)
Time: 09:28:15
(UTC+00:00)
Language:

Skynet 4D - Orbit

View from above orbital plane
View from above orbital plane
View from above satellite
View from above satellite

Ground track
Ground track

The orbit data is extracted from the following two-line orbital elements,

1 25134U 98002A   19083.76018030 -.00000170 +00000-0 +00000-0 0  9999
2 25134 011.0785 026.5270 0003069 015.2840 159.7815 00.99151869077186
Epoch (UTC): 24 March 2019 18:14:39
Eccentricity: 0.0003069
inclination: 11.0785°
perigee height: 36090 km
apogee height: 36116 km
right ascension of ascending node: 26.5270°
argument of perigee: 15.2840°
revolutions per day: 0.99151869
mean anomaly at epoch: 159.7815°
orbit number at epoch: 7718

The dashed part of the orbit path shows where the satellite is in the earth's shadow,  

DLR